OPTUS 10

Last updated on Wed Mar 11 2026 00:02:53 GMT+0000 (Coordinated Universal Time)

1 40146U 14054A 26069.52161316 -.00000146 00000+0 00000+0 0 9997 2 40146 0.1173 332.7412 0002005 19.8374 159.3738 1.00270972 42044
UTC large
Height (km)
Speed (km/s)
/
Latitude / Longitude
Inclination (degrees)
Orbital Period (minutes)
Azimuth
Elevation
Range (km)
Doppler Factor

Next 0 passes for location: London (51.5072 / 0.1276)

Sorry there are no passes over London.